Location: Squirrel Cove
(50.1074°N, 124.9139°W)
Time: 13:45:08
(UTC-07:00)

PCSat - Pass Details

Date: 20 May 2022
Orbit: 784 x 795 km, 67.1° (Epoch: 26 June)

Event Time Altitude Azimuth Distance (km) Brightness Sun altitude
Rises 01:46:12 0° 321° (NW) 3,305 13.5 -19.6°
Reaches altitude 10° 01:49:19 10° 339° (NNW) 2,374 12.9 -19.5°
Maximum altitude 01:53:14 20° 25° (NNE) 1,797 12.3 -19.4°
Drops below altitude 10° 01:57:07 10° 71° (ENE) 2,369 12.4 -19.3°
Sets 02:00:13 0° 89° (E) 3,296 12.9 -19.2°
